Weather observations for the past three days for
King Salmon, King Salmon Airport
Metric (Imperial)
Date Time (akdt) Wind (kph) Vis. (km) Weather Sky Cond. Temperature (ºC) Relative Humidity Wind Chill (°C) Heat Index (°C) Pressure Precipitation (cm)
Air Dwpt 6 hour altimeter (cm) sea level (mb) 1 hr 3 hr 6 hr
Max. Min.
07 23:54 NW 7 16.09 Mostly Cloudy BKN050 2.8 -6.1 52% 1 75.77 0.0
07 22:54 NW 9 16.09 Partly Cloudy SCT060 7.2 -3.9 46% 6 75.77 0.0
07 21:54 NW 13 16.09 Partly Cloudy SCT060 7.2 -2.8 49% 5 75.77 0.0
07 20:54 NW 11 16.09 Partly Cloudy SCT035 SCT100 7.2 -2.8 49% 5 75.79 0.0
07 19:54 NW 11 16.09 Partly Cloudy SCT035 SCT100 0 0 0% 75.82 0.0
07 18:54 Vrbl 9 16.09 Partly Cloudy SCT025 0 0 0% 75.84 0.0
07 16:54 Vrbl 7 16.09 Partly Cloudy SCT022 0 0 0% 75.92 0.0
07 15:54 Vrbl 7 16.09 Partly Cloudy SCT020 0 0 0% 75.97 0.0
07 14:54 Vrbl 7 16.09 Partly Cloudy SCT020 0 0 0% 76.02 0.0
07 13:54 Vrbl 7 16.09 Partly Cloudy SCT020 0 0 0% 76.07 0.0
07 12:54 Calm 16.09 Fair CLR 0 0 0% 76.1 0.0
07 11:54 Calm 16.09 A Few Clouds FEW003 0 0 0% 76.15 0.0
07 10:54 Calm 16.09 A Few Clouds FEW003 0 0 0% 76.17 0.0
07 09:54 Calm 16.09 A Few Clouds FEW003 0 0 0% 76.2 0.0
07 08:54 Calm 16.09 Mostly Cloudy BKN003 0 0 0% 76.23 0.0
07 03:54 Calm 16.09 A Few Clouds FEW060 -2.2 -3.9 88% 76.3 0.0
07 02:54 Calm 16.09 A Few Clouds FEW060 -2.2 -2.8 96% 76.33 0.0
07 01:54 Calm 16.09 Partly Cloudy SCT060 -2.2 -3.3 92% 76.33 0.0
07 00:54 Calm 16.09 Partly Cloudy SCT060 -2.2 -2.8 96% 76.33 0.0
06 23:54 W 6 16.09 A Few Clouds FEW060 -1.1 -2.8 88% 76.3 0.0
06 22:54 W 7 16.09 A Few Clouds FEW060 0 -2.8 82% -2 76.3 0.0
06 21:54 W 7 16.09 A Few Clouds FEW060 2.2 -2.2 73% 0 76.28 0.0
06 20:54 S 11 16.09 Partly Cloudy SCT040 4.4 -2.8 60% 2 76.25 0.0
06 19:54 S 11 16.09 Partly Cloudy SCT040 0 0 0% 76.28 0.0
06 18:54 S 11 16.09 Mostly Cloudy BKN030 0 0 0% 76.28 0.0
06 17:54 S 15 16.09 Mostly Cloudy BKN030 0 0 0% 76.3 0.0
06 16:54 S 15 16.09 Mostly Cloudy BKN030 0 0 0% 76.3 0.0
06 15:54 S 13 16.09 Mostly Cloudy BKN025 0 0 0% 76.3 0.0
06 14:54 S 13 16.09 Mostly Cloudy BKN025 0 0 0% 76.3 0.0
06 13:54 S 19 16.09 Mostly Cloudy BKN022 0 0 0% 76.3 0.0
06 12:54 S 11 16.09 Mostly Cloudy BKN013 0 0 0% 76.3 0.0
06 11:54 S 13 16.09 Mostly Cloudy BKN013 0 0 0% 76.28 0.0
06 10:54 S 11 16.09 Mostly Cloudy BKN010 0 0 0% 76.28 0.0
06 09:54 S 15 12.87 Mostly Cloudy BKN006 0 0 0% 76.28 0.0
06 08:54 S 13 16.09 Overcast OVC007 0 0 0% 76.25 0.0
06 07:54 S 15 14.48 Overcast OVC007 0 0 0% 76.2 0.0
06 03:54 Calm 16.09 Mostly Cloudy SCT010 BKN030 3.9 2.2 89% 76.1 0.0
06 02:54 Calm 16.09 Partly Cloudy FEW010 SCT030 3.9 2.2 89% 76.05 0.0
06 01:54 Calm 16.09 Partly Cloudy FEW010 SCT030 3.3 1.7 89% 76.02 0.0
06 00:54 Calm 16.09 Mostly Cloudy FEW006 BKN030 3.9 2.2 89% 76 0.0
05 23:54 Calm 16.09 Mostly Cloudy FEW006 BKN030 4.4 2.8 89% 75.92 0.0
05 22:54 Calm 16.09 Mostly Cloudy FEW006 BKN026 7.2 2.8 74% 75.92 1012.0
05 21:54 Calm 16.09 Mostly Cloudy FEW006 BKN022 6.7 3.9 83% 75.84 1011.3
05 20:54 W 17 16.09 Light Rain BKN022 OVC035 3.9 2.8 93% 0 75.82 1010.7
05 19:54 W 17 16.09 Light Rain BKN015 0 0 0% 75.77 0.0
05 18:54 NW 19 11.27 Light Rain BKN015 0 0 0% 75.72 0.0
05 17:54 W 15 16.09 Mostly Cloudy BKN015 0 0 0% 75.64 0.0
05 16:54 W 11 16.09 Overcast OVC015 0 0 0% 75.62 0.0
05 15:54 W 15 16.09 Overcast OVC015 0 0 0% 75.59 0.0
05 14:54 W 15 16.09 Overcast OVC015 0 0 0% 75.57 0.0
05 13:54 NW 13 16.09 Mostly Cloudy BKN015 0 0 0% 75.54 0.0
05 12:54 NW 13 16.09 Mostly Cloudy BKN013 0 0 0% 75.46 0.0
05 11:54 E 15 16.09 Mostly Cloudy BKN008 0 0 0% 75.41 0.0
05 10:54 SE 15 16.09 Overcast OVC007 4.4 2.8 89% 1 75.36 1004.7
05 09:54 SE 13 16.09 Overcast OVC007 3.9 2.8 93% 1 75.31 1004.0
05 08:54 S 13 16.09 Overcast OVC005 3.9 2.8 93% 1 75.23 1003.1
05 07:54 S 15 16.09 Overcast OVC005 3.3 2.2 93% 0 75.16 0.0
05 03:54 NE 19 16.09 Overcast OVC030 5.6 2.8 82% 2 74.9 0.0
05 02:54 E 9 16.09 Overcast OVC030 6.1 2.8 80% 4 74.88 0.0
05 01:54 E 9 16.09 Light Rain BKN030 6.1 2.8 80% 4 74.85 0.0
05 00:54 E 9 16.09 Light Rain BKN030 5.6 2.2 79% 4 74.8 0.0
Date Time (akdt) Wind (kph) Vis. (km) Weather Sky Cond. Air Dwpt Max. Min. Relative Humidity Wind Chill (°C) Heat Index (°C) altimeter (cm) sea level (mb) 1 hr 3 hr 6 hr
6 hour
Temperature (ºC) Pressure Precipitation (cm)